Content
SEND FEEDBACK

Daily
Averages
Monthly
Summary
United States of America

UMATAC, GUAM


Home > North America > United States > Guam
Elevation: 190 feet     Latitude: 13 17N     Longitude: 144 40E

WEATHER
 
SELECT A DAY
Number of Records: 342,166;   Date Range: 1/1/95 - 8/12/14
 
SHARE

PRINT THIS DATA

[ ← Previous Day ]
WEATHER ALMANAC - JULY 1, 2013
[ Next Day → ]
[ °C ]   °F
We're sorry. There is no daily almanac available for Umatac, Guam on July 1, 2013.
WEATHER BY HOUR - JULY 1, 2013
[ °C ]   °F
Local TimeTemperatureDewpointHumidityBarometerVisibilityWind DirectionWind SpeedGust SpeedPrecipitationEventsConditions
12:24 AM78.8 °F77.0 °F94 %29.85 in10.0 miSSW (200°)9.2 mphMostly Cloudy
12:25 AM78.8 °F75.2 °F89 %29.85 in10.0 miSSW (200°)9.2 mphMostly Cloudy
12:26 AM78.8 °F75.2 °F89 %29.85 in10.0 miSSW (200°)9.2 mphMostly Cloudy
12:29 AM78.8 °F75.2 °F89 %29.85 in8.0 miSouth (190°)8.1 mphLight Drizzle
12:41 AM77.0 °F75.2 °F94 %29.85 in5.0 miSE (140°)5.8 mphRainLight Rain
12:44 AM77.0 °F75.2 °F94 %29.84 in6.0 miSSE (150°)5.8 mphRainLight Rain
12:55 AM77.0 °F72.7 °F86 %29.84 in10.0 miSouth (170°)3.5 mph0.07 inRainLight Rain
12:57 AM77.0 °F69.8 °F78 %29.84 in10.0 miCalmOvercast
12:58 AM77.0 °F69.8 °F78 %29.84 in10.0 miCalmOvercast
1:19 AM77.0 °F69.8 °F78 %29.84 in10.0 miCalmMostly Cloudy
1:22 AM77.0 °F69.8 °F78 %29.84 in10.0 miCalmMostly Cloudy
1:25 AM77.0 °F69.8 °F78 %29.83 in10.0 miCalmScattered Clouds
1:43 AM77.0 °F66.2 °F69 %29.83 in10.0 miNorth (360°)4.6 mphMostly Cloudy
1:45 AM77.0 °F64.4 °F65 %29.83 in10.0 miCalmScattered Clouds
1:55 AM76.3 °F63.9 °F65 %29.82 in10.0 miCalm0.00 inPartly Cloudy
2:10 AM75.2 °F64.4 °F69 %29.82 in10.0 miCalmPartly Cloudy
2:55 AM76.6 °F63.9 °F65 %29.81 in10.0 miESE (120°)5.8 mphPartly Cloudy
3:46 AM77.0 °F69.8 °F78 %29.82 in10.0 miEast (100°)4.6 mphLight Drizzle
3:55 AM76.5 °F70.9 °F83 %29.82 in10.0 miEast (100°)5.8 mph0.00 inLight Drizzle
3:56 AM77.0 °F71.6 °F83 %29.82 in10.0 miEast (100°)5.8 mphScattered Clouds
4:55 AM77.7 °F73.9 °F88 %29.81 in10.0 miEast (100°)5.8 mphPartly Cloudy
5:09 AM77.0 °F73.4 °F89 %29.81 in10.0 miEast (80°)8.1 mphMostly Cloudy
5:14 AM78.8 °F73.4 °F83 %29.81 in10.0 miEast (90°)12.7 mphMostly Cloudy
5:21 AM77.0 °F73.4 °F89 %29.82 in10.0 miEast (90°)10.4 mphMostly Cloudy
5:25 AM77.0 °F73.4 °F89 %29.82 in10.0 miEast (100°)8.1 mphMostly Cloudy
5:55 AM77.4 °F72.3 °F84 %29.82 in10.0 miEast (100°)8.1 mphScattered Clouds
5:57 AM77.0 °F71.6 °F83 %29.83 in10.0 miEast (100°)10.4 mphMostly Cloudy
6:10 AM78.8 °F73.4 °F83 %29.83 in10.0 miEast (90°)13.8 mphMostly Cloudy
6:23 AM77.0 °F73.4 °F89 %29.83 in10.0 miESE (110°)11.5 mphMostly Cloudy
6:30 AM77.0 °F73.4 °F89 %29.83 in10.0 miEast (90°)9.2 mphScattered Clouds
6:55 AM78.6 °F74.7 °F88 %29.83 in10.0 miEast (100°)6.9 mphPartly Cloudy
7:55 AM80.2 °F76.5 °F88 %29.83 in10.0 miEast (100°)6.9 mphClear
8:55 AM83.1 °F77.9 °F84 %29.84 in10.0 miEast (100°)10.4 mphScattered Clouds
9:54 AM84.2 °F77.0 °F79 %29.84 in10.0 miEast (100°)12.7 mphMostly Cloudy
9:55 AM83.8 °F77.2 °F80 %29.84 in10.0 miESE (110°)11.5 mphMostly Cloudy
10:01 AM84.2 °F77.0 °F79 %29.84 in10.0 miESE (110°)13.8 mphScattered Clouds
10:03 AM84.2 °F77.0 °F79 %29.84 in10.0 miEast (100°)11.5 mphMostly Cloudy
10:31 AM84.2 °F77.0 °F79 %29.83 in10.0 miESE (120°)15.0 mphScattered Clouds
10:38 AM84.2 °F77.0 °F79 %29.84 in10.0 miEast (100°)13.8 mphMostly Cloudy
10:43 AM84.2 °F77.0 °F79 %29.83 in10.0 miEast (100°)13.8 mphScattered Clouds
10:55 AM83.7 °F77.2 °F81 %29.83 in10.0 miESE (110°)12.7 mphScattered Clouds
10:56 AM84.2 °F77.0 °F79 %29.83 in10.0 miESE (110°)13.8 mphMostly Cloudy
11:01 AM84.2 °F78.8 °F84 %29.83 in10.0 miEast (100°)12.7 mphScattered Clouds
11:23 AM84.2 °F78.8 °F84 %29.83 in10.0 miEast (100°)12.7 mphMostly Cloudy
11:51 AM84.2 °F78.8 °F84 %29.83 in10.0 miEast (90°)13.8 mphMostly Cloudy
11:53 AM84.2 °F78.8 °F84 %29.83 in10.0 miEast (100°)13.8 mphMostly Cloudy
11:55 AM85.1 °F78.4 °F80 %29.83 in10.0 miEast (100°)11.5 mphMostly Cloudy
11:56 AM84.2 °F78.8 °F84 %29.83 in10.0 miEast (100°)12.7 mphMostly Cloudy
12:08 PM86.0 °F77.0 °F74 %29.83 in10.0 miEast (90°)12.7 mphScattered Clouds
12:15 PM84.2 °F77.0 °F79 %29.83 in10.0 miESE (110°)12.7 mphMostly Cloudy
12:19 PM84.2 °F77.0 °F79 %29.83 in10.0 miEast (100°)12.7 mph20.7 mphMostly Cloudy
12:37 PM86.0 °F78.8 °F79 %29.82 in10.0 miESE (120°)12.7 mphMostly Cloudy
12:55 PM85.1 °F77.9 °F79 %29.82 in10.0 miEast (100°)11.5 mphMostly Cloudy
1:13 PM86.0 °F78.8 °F79 %29.81 in10.0 miESE (120°)12.7 mphMostly Cloudy
1:55 PM84.7 °F77.4 °F78 %29.81 in10.0 miESE (110°)11.5 mphPartly Cloudy
2:55 PM85.3 °F78.3 °F79 %29.79 in10.0 miESE (120°)11.5 mphScattered Clouds
3:55 PM84.2 °F77.7 °F81 %29.79 in10.0 miESE (110°)9.2 mphScattered Clouds
4:03 PM84.2 °F77.0 °F79 %29.79 in10.0 miEast (90°)6.9 mphMostly Cloudy
4:15 PM84.2 °F77.0 °F79 %29.79 in10.0 miEast (90°)9.2 mphScattered Clouds
4:54 PM84.2 °F77.0 °F79 %29.79 in5.0 miESE (120°)8.1 mphHaze
4:55 PM83.3 °F77.7 °F83 %29.79 in4.0 miEast (100°)6.9 mph0.01 inRainRain
5:10 PM82.4 °F78.8 °F89 %29.79 in10.0 miEast (90°)6.9 mphOvercast
5:12 PM82.4 °F78.8 °F89 %29.79 in10.0 miEast (80°)10.4 mphOvercast
5:19 PM80.6 °F78.8 °F94 %29.80 in10.0 miENE (70°)10.4 mphRainLight Rain
5:25 PM80.6 °F77.0 °F89 %29.80 in10.0 miEast (90°)10.4 mphRainLight Rain
5:28 PM80.6 °F77.0 °F89 %29.80 in10.0 miEast (80°)9.2 mphMostly Cloudy
5:39 PM80.6 °F78.8 °F94 %29.81 in10.0 miEast (80°)8.1 mphScattered Clouds
5:55 PM81.0 °F77.7 °F90 %29.81 in10.0 miESE (110°)9.2 mph0.00 inPartly Cloudy
6:55 PM81.0 °F76.8 °F87 %29.82 in10.0 miESE (110°)6.9 mphScattered Clouds
7:55 PM80.4 °F76.3 °F87 %29.82 in10.0 miEast (100°)5.8 mphClear
8:43 PM80.6 °F77.0 °F89 %29.83 in10.0 miEast (90°)5.8 mphMostly Cloudy
8:46 PM80.6 °F77.0 °F89 %29.83 in10.0 miEast (90°)6.9 mphScattered Clouds
8:50 PM80.6 °F77.0 °F89 %29.83 in10.0 miEast (90°)8.1 mphMostly Cloudy
8:53 PM80.6 °F77.0 °F89 %29.83 in10.0 miEast (90°)6.9 mphScattered Clouds
8:55 PM80.2 °F77.5 °F91 %29.83 in10.0 miEast (90°)8.1 mphScattered Clouds
9:55 PM79.9 °F77.2 °F91 %29.84 in10.0 miEast (100°)4.6 mphMostly Cloudy
10:55 PM79.9 °F77.4 °F92 %29.85 in10.0 miENE (60°)4.6 mphScattered Clouds
11:10 PM78.8 °F77.0 °F94 %29.84 in10.0 miENE (60°)4.6 mphMostly Cloudy
11:20 PM78.8 °F77.0 °F94 %29.84 in10.0 miENE (60°)4.6 mphScattered Clouds
11:55 PM79.7 °F77.2 °F92 %29.84 in10.0 miENE (60°)4.6 mphScattered Clouds
Hourly data recorded from PGUA, located miles away from Umatac, Guam







STORIES FROM OUR PARTNERS